Time,TemperatureF,DewpointF,PressureIn,WindDirection,WindDirectionDegrees,WindSpeedMPH,WindSpeedGustMPH,Humidity,HourlyPrecipIn,Conditions,Clouds,dailyrainin,SoftwareType,DateUTC
2013-03-08 00:00:00,29.9,29.9,29.94,NE,45,5.0,13.0,100,0.00,,,-99.99,Weather View 32 v60,2013-03-08 05:00:00,
2013-03-08 00:05:00,29.9,29.9,29.94,NE,45,4.0,13.0,100,0.00,,,-99.99,Weather View 32 v60,2013-03-08 05:05:00,
2013-03-08 00:10:00,29.9,29.9,29.94,NE,45,3.0,13.0,100,0.00,,,-99.99,Weather View 32 v60,2013-03-08 05:10:00,
2013-03-08 00:15:00,29.9,29.9,29.94,NE,45,7.0,15.0,100,0.00,,,-99.99,Weather View 32 v60,2013-03-08 05:15:00,
2013-03-08 00:20:00,29.9,29.9,29.94,NNE,23,5.0,15.0,100,0.00,,,-99.99,Weather View 32 v60,2013-03-08 05:20:00,
2013-03-08 00:25:00,29.9,29.9,29.94,ENE,68,5.0,15.0,100,0.00,,,-99.99,Weather View 32 v60,2013-03-08 05:25:00,
2013-03-08 00:30:00,29.8,29.8,29.94,NE,45,6.0,15.0,100,0.00,,,-99.99,Weather View 32 v60,2013-03-08 05:30:00,
2013-03-08 00:35:00,29.8,29.8,29.94,East,90,6.0,15.0,100,0.00,,,-99.99,Weather View 32 v60,2013-03-08 05:35:00,
2013-03-08 00:40:00,29.8,29.8,29.94,NE,45,4.0,15.0,100,0.00,,,-99.99,Weather View 32 v60,2013-03-08 05:40:00,
2013-03-08 00:45:00,29.8,29.8,29.94,NNE,23,5.0,15.0,100,0.00,,,-99.99,Weather View 32 v60,2013-03-08 05:45:00,
2013-03-08 00:50:00,29.8,29.8,29.94,NE,45,3.0,15.0,100,0.00,,,-99.99,Weather View 32 v60,2013-03-08 05:50:00,
2013-03-08 00:55:00,29.7,29.7,29.93,NNE,23,4.0,15.0,100,0.00,,,-99.99,Weather View 32 v60,2013-03-08 05:55:00,
2013-03-08 01:00:00,29.7,29.7,29.93,NNE,23,9.0,15.0,100,0.00,,,-99.99,Weather View 32 v60,2013-03-08 06:00:00,
2013-03-08 01:05:00,29.7,29.7,29.93,NNE,23,3.0,15.0,100,0.00,,,-99.99,Weather View 32 v60,2013-03-08 06:05:00,
2013-03-08 01:10:00,29.7,29.7,29.93,NNE,23,4.0,15.0,100,0.00,,,-99.99,Weather View 32 v60,2013-03-08 06:10:00,
2013-03-08 01:15:00,29.7,29.7,29.92,NNE,23,5.0,14.0,100,0.00,,,-99.99,Weather View 32 v60,2013-03-08 06:15:00,
2013-03-08 01:20:00,29.7,29.7,29.92,NNE,23,4.0,14.0,100,0.00,,,-99.99,Weather View 32 v60,2013-03-08 06:20:00,
2013-03-08 01:25:00,29.6,29.6,29.92,NE,45,3.0,14.0,100,0.00,,,-99.99,Weather View 32 v60,2013-03-08 06:25:00,
2013-03-08 01:30:00,29.6,29.6,29.92,NE,45,5.0,14.0,100,0.00,,,-99.99,Weather View 32 v60,2013-03-08 06:30:00,
2013-03-08 01:35:00,29.6,29.6,29.92,NE,45,7.0,16.0,100,0.00,,,-99.99,Weather View 32 v60,2013-03-08 06:35:00,
2013-03-08 01:40:00,29.6,29.6,29.92,NNE,23,6.0,16.0,100,0.00,,,-99.99,Weather View 32 v60,2013-03-08 06:40:00,
2013-03-08 01:45:00,29.6,29.6,29.92,NNE,23,7.0,16.0,100,0.00,,,-99.99,Weather View 32 v60,2013-03-08 06:45:00,
2013-03-08 01:50:00,29.6,29.6,29.91,NE,45,4.0,16.0,100,0.00,,,-99.99,Weather View 32 v60,2013-03-08 06:50:00,
2013-03-08 01:55:00,29.6,29.6,29.91,East,90,4.0,16.0,100,0.00,,,-99.99,Weather View 32 v60,2013-03-08 06:55:00,
2013-03-08 02:00:00,29.6,29.6,29.91,NE,45,4.0,16.0,100,0.00,,,-99.99,Weather View 32 v60,2013-03-08 07:00:00,
2013-03-08 02:05:00,29.6,29.6,29.91,East,90,7.0,16.0,100,0.00,,,-99.99,Weather View 32 v60,2013-03-08 07:05:00,
2013-03-08 02:10:00,29.6,29.6,29.91,NNE,23,7.0,16.0,100,0.00,,,-99.99,Weather View 32 v60,2013-03-08 07:10:00,
2013-03-08 02:15:00,29.6,29.6,29.91,NNE,23,4.0,16.0,100,0.00,,,-99.99,Weather View 32 v60,2013-03-08 07:15:00,
2013-03-08 02:20:00,29.6,29.6,29.91,NNE,23,6.0,16.0,100,0.00,,,-99.99,Weather View 32 v60,2013-03-08 07:20:00,
2013-03-08 02:25:00,29.6,29.6,29.91,NNE,23,6.0,16.0,100,0.00,,,-99.99,Weather View 32 v60,2013-03-08 07:25:00,
2013-03-08 02:30:00,29.5,29.5,29.91,NNE,23,5.0,16.0,100,0.00,,,-99.99,Weather View 32 v60,2013-03-08 07:30:00,
2013-03-08 02:35:00,29.5,29.5,29.91,NE,45,9.0,16.0,100,0.00,,,-99.99,Weather View 32 v60,2013-03-08 07:35:00,
2013-03-08 02:40:00,29.5,29.5,29.91,ENE,68,5.0,12.0,100,0.00,,,-99.99,Weather View 32 v60,2013-03-08 07:40:00,
2013-03-08 02:45:00,29.5,29.5,29.91,NNE,23,4.0,12.0,100,0.00,,,-99.99,Weather View 32 v60,2013-03-08 07:45:00,
2013-03-08 02:50:00,29.5,29.5,29.91,ENE,68,4.0,12.0,100,0.00,,,-99.99,Weather View 32 v60,2013-03-08 07:50:00,
2013-03-08 02:55:00,29.5,29.5,29.91,NNE,23,7.0,12.0,100,0.00,,,-99.99,Weather View 32 v60,2013-03-08 07:55:00,
2013-03-08 03:00:00,29.5,29.5,29.91,NE,45,4.0,14.0,100,0.00,,,-99.99,Weather View 32 v60,2013-03-08 08:00:00,
2013-03-08 03:05:00,29.5,29.5,29.91,NNE,23,9.0,14.0,100,0.00,,,-99.99,Weather View 32 v60,2013-03-08 08:05:00,
2013-03-08 03:10:00,29.4,29.4,29.91,NE,45,6.0,14.0,100,0.00,,,-99.99,Weather View 32 v60,2013-03-08 08:10:00,
2013-03-08 03:15:00,29.4,29.4,29.91,NNE,23,4.0,14.0,100,0.00,,,-99.99,Weather View 32 v60,2013-03-08 08:15:00,
2013-03-08 03:20:00,29.4,29.4,29.91,NNE,23,4.0,14.0,100,0.00,,,-99.99,Weather View 32 v60,2013-03-08 08:20:00,
2013-03-08 03:25:00,29.4,29.4,29.91,NNE,23,6.0,14.0,100,0.00,,,-99.99,Weather View 32 v60,2013-03-08 08:25:00,
2013-03-08 03:30:00,29.4,29.4,29.91,NNE,23,6.0,14.0,100,0.00,,,-99.99,Weather View 32 v60,2013-03-08 08:30:00,
2013-03-08 03:35:00,29.4,29.4,29.91,NNE,23,5.0,14.0,100,0.00,,,-99.99,Weather View 32 v60,2013-03-08 08:35:00,
2013-03-08 03:40:00,29.4,29.4,29.91,ENE,68,5.0,14.0,100,0.00,,,-99.99,Weather View 32 v60,2013-03-08 08:40:00,
2013-03-08 03:45:00,29.4,29.4,29.91,East,90,3.0,14.0,100,0.00,,,-99.99,Weather View 32 v60,2013-03-08 08:45:00,
2013-03-08 03:50:00,29.4,29.4,29.91,ENE,68,6.0,14.0,100,0.00,,,-99.99,Weather View 32 v60,2013-03-08 08:50:00,
2013-03-08 03:55:00,29.3,29.3,29.91,NNE,23,3.0,14.0,100,0.00,,,-99.99,Weather View 32 v60,2013-03-08 08:55:00,
2013-03-08 04:00:00,29.3,29.3,29.91,NNE,23,5.0,16.0,100,0.00,,,-99.99,Weather View 32 v60,2013-03-08 09:00:00,
2013-03-08 04:05:00,29.3,29.3,29.91,NE,45,6.0,16.0,100,0.00,,,-99.99,Weather View 32 v60,2013-03-08 09:05:00,
2013-03-08 04:10:00,29.3,29.3,29.90,NE,45,7.0,16.0,100,0.00,,,-99.99,Weather View 32 v60,2013-03-08 09:10:00,
2013-03-08 04:15:00,29.3,29.3,29.90,NE,45,6.0,16.0,100,0.00,,,-99.99,Weather View 32 v60,2013-03-08 09:15:00,
2013-03-08 04:20:00,29.3,29.3,29.91,East,90,7.0,16.0,100,0.00,,,-99.99,Weather View 32 v60,2013-03-08 09:20:00,
2013-03-08 04:25:00,29.3,29.3,29.91,NE,45,6.0,16.0,100,0.00,,,-99.99,Weather View 32 v60,2013-03-08 09:25:00,
2013-03-08 04:30:00,29.2,29.2,29.91,NNE,23,5.0,16.0,100,0.00,,,-99.99,Weather View 32 v60,2013-03-08 09:30:00,
2013-03-08 04:35:00,29.2,29.2,29.91,NNE,23,4.0,16.0,100,0.00,,,-99.99,Weather View 32 v60,2013-03-08 09:35:00,
2013-03-08 04:40:00,29.3,29.3,29.92,NNE,23,8.0,16.0,100,0.00,,,-99.99,Weather View 32 v60,2013-03-08 09:40:00,
2013-03-08 04:45:00,29.3,29.3,29.91,NNE,23,9.0,16.0,100,0.00,,,-99.99,Weather View 32 v60,2013-03-08 09:45:00,
2013-03-08 04:50:00,29.3,29.3,29.92,NE,45,4.0,16.0,100,0.00,,,-99.99,Weather View 32 v60,2013-03-08 09:50:00,
2013-03-08 04:55:00,29.3,29.3,29.92,NNE,23,4.0,16.0,100,0.00,,,-99.99,Weather View 32 v60,2013-03-08 09:55:00,
2013-03-08 05:15:00,29.2,29.2,29.91,NNE,23,4.0,12.0,100,0.00,,,-99.99,Weather View 32 v60,2013-03-08 10:15:00,
2013-03-08 05:20:00,29.2,29.2,29.91,NNE,23,3.0,11.0,100,0.00,,,-99.99,Weather View 32 v60,2013-03-08 10:20:00,
2013-03-08 05:25:00,29.2,29.2,29.91,South,180,3.0,11.0,100,0.00,,,-99.99,Weather View 32 v60,2013-03-08 10:25:00,
2013-03-08 05:59:00,29.3,29.3,29.91,NE,45,5.0,16.0,100,0.00,,,-99.99,Weather View 32 v60,2013-03-08 10:59:00,
2013-03-08 06:00:00,29.2,29.2,29.92,NE,45,6.0,15.0,100,0.00,,,-99.99,Weather View 32 v60,2013-03-08 11:00:00,
2013-03-08 06:09:00,29.3,29.3,29.91,NNE,23,2.0,12.0,100,0.00,,,-99.99,Weather View 32 v60,2013-03-08 11:09:00,
2013-03-08 06:30:00,29.2,29.2,29.92,NE,45,3.0,11.0,100,0.00,,,-99.99,Weather View 32 v60,2013-03-08 11:30:00,
2013-03-08 06:40:00,29.2,29.2,29.92,NNE,23,4.0,11.0,100,0.00,,,-99.99,Weather View 32 v60,2013-03-08 11:40:00,
2013-03-08 06:49:00,29.2,29.2,29.92,NNE,23,4.0,11.0,100,0.00,,,-99.99,Weather View 32 v60,2013-03-08 11:49:00,
2013-03-08 06:54:00,29.2,29.2,29.92,NNE,23,6.0,15.0,100,0.00,,,-99.99,Weather View 32 v60,2013-03-08 11:54:00,
2013-03-08 07:04:00,29.2,29.2,29.92,NNE,23,4.0,15.0,100,0.00,,,-99.99,Weather View 32 v60,2013-03-08 12:04:00,
2013-03-08 07:09:00,29.2,29.2,29.92,NE,45,5.0,15.0,100,0.00,,,-99.99,Weather View 32 v60,2013-03-08 12:09:00,
2013-03-08 07:15:00,29.2,29.2,29.92,NE,45,6.0,15.0,100,0.00,,,-99.99,Weather View 32 v60,2013-03-08 12:15:00,
2013-03-08 07:24:00,29.1,29.1,29.92,ENE,68,7.0,15.0,100,0.00,,,-99.99,Weather View 32 v60,2013-03-08 12:24:00,
2013-03-08 07:30:00,29.2,29.2,29.92,NE,45,3.0,15.0,100,0.00,,,-99.99,Weather View 32 v60,2013-03-08 12:30:00,
2013-03-08 07:40:00,29.1,29.1,29.93,NNE,23,4.0,15.0,100,0.00,,,-99.99,Weather View 32 v60,2013-03-08 12:40:00,
2013-03-08 07:49:00,29.1,29.1,29.93,NE,45,5.0,15.0,100,0.00,,,-99.99,Weather View 32 v60,2013-03-08 12:49:00,
2013-03-08 07:54:00,29.2,29.2,29.93,SE,135,4.0,16.0,100,0.00,,,-99.99,Weather View 32 v60,2013-03-08 12:54:00,
2013-03-08 08:04:00,29.2,29.2,29.93,ENE,68,5.0,16.0,100,0.00,,,-99.99,Weather View 32 v60,2013-03-08 13:04:00,
2013-03-08 08:09:00,29.2,29.2,29.93,NE,45,4.0,16.0,100,0.00,,,-99.99,Weather View 32 v60,2013-03-08 13:09:00,
2013-03-08 08:14:00,29.3,29.3,29.93,NE,45,3.0,16.0,100,0.00,,,-99.99,Weather View 32 v60,2013-03-08 13:14:00,
2013-03-08 08:24:00,29.3,29.3,29.93,NNE,23,6.0,16.0,100,0.00,,,-99.99,Weather View 32 v60,2013-03-08 13:24:00,
2013-03-08 08:30:00,29.3,29.3,29.94,NE,45,7.0,16.0,100,0.00,,,-99.99,Weather View 32 v60,2013-03-08 13:30:00,
2013-03-08 08:40:00,29.3,29.3,29.94,NNE,23,3.0,16.0,100,0.00,,,-99.99,Weather View 32 v60,2013-03-08 13:40:00,
2013-03-08 08:49:00,29.4,29.4,29.94,NE,45,4.0,16.0,100,0.00,,,-99.99,Weather View 32 v60,2013-03-08 13:49:00,
2013-03-08 08:54:00,29.4,29.4,29.94,NNE,23,4.0,12.0,100,0.00,,,-99.99,Weather View 32 v60,2013-03-08 13:54:00,
2013-03-08 09:04:00,29.4,29.4,29.93,NNE,23,7.0,12.0,100,0.00,,,-99.99,Weather View 32 v60,2013-03-08 14:04:00,
2013-03-08 09:09:00,29.4,29.4,29.93,NE,45,4.0,12.0,100,0.00,,,-99.99,Weather View 32 v60,2013-03-08 14:09:00,
2013-03-08 09:15:00,29.5,29.5,29.93,NNE,23,4.0,12.0,100,0.00,,,-99.99,Weather View 32 v60,2013-03-08 14:15:00,
2013-03-08 09:25:00,29.6,29.6,29.94,NE,45,3.0,12.0,100,0.00,,,-99.99,Weather View 32 v60,2013-03-08 14:25:00,
2013-03-08 09:30:00,29.6,29.6,29.94,NNE,23,4.0,12.0,100,0.00,,,-99.99,Weather View 32 v60,2013-03-08 14:30:00,
2013-03-08 09:39:00,29.6,29.6,29.94,ENE,68,3.0,12.0,100,0.00,,,-99.99,Weather View 32 v60,2013-03-08 14:39:00,
2013-03-08 09:49:00,29.7,29.7,29.94,NNE,23,6.0,12.0,100,0.00,,,-99.99,Weather View 32 v60,2013-03-08 14:49:00,
2013-03-08 09:54:00,29.8,29.8,29.95,NNE,23,5.0,12.0,100,0.00,,,-99.99,Weather View 32 v60,2013-03-08 14:54:00,
2013-03-08 10:00:00,29.8,29.8,29.95,NNE,23,5.0,12.0,100,0.00,,,-99.99,Weather View 32 v60,2013-03-08 15:00:00,
2013-03-08 10:09:00,29.9,29.9,29.95,NNE,23,5.0,13.0,100,0.00,,,-99.99,Weather View 32 v60,2013-03-08 15:09:00,
2013-03-08 10:14:00,29.9,29.9,29.95,NNE,23,3.0,13.0,100,0.00,,,-99.99,Weather View 32 v60,2013-03-08 15:14:00,
2013-03-08 10:24:00,30.0,30.0,29.94,NE,45,5.0,13.0,100,0.00,,,-99.99,Weather View 32 v60,2013-03-08 15:24:00,
2013-03-08 10:30:00,29.9,29.9,29.94,NNE,23,9.0,13.0,100,0.00,,,-99.99,Weather View 32 v60,2013-03-08 15:30:00,
2013-03-08 10:39:00,30.0,30.0,29.95,NE,45,7.0,13.0,100,0.00,,,-99.99,Weather View 32 v60,2013-03-08 15:39:00,
2013-03-08 10:44:00,30.0,30.0,29.95,NE,45,9.0,13.0,100,0.00,,,-99.99,Weather View 32 v60,2013-03-08 15:44:00,
2013-03-08 10:49:00,30.0,30.0,29.95,NNE,23,6.0,13.0,100,0.00,,,-99.99,Weather View 32 v60,2013-03-08 15:49:00,
2013-03-08 10:54:00,30.1,30.1,29.94,NNE,23,5.0,13.0,100,0.00,,,-99.99,Weather View 32 v60,2013-03-08 15:54:00,
2013-03-08 11:04:00,30.2,30.2,29.94,ENE,68,4.0,13.0,100,0.00,,,-99.99,Weather View 32 v60,2013-03-08 16:04:00,
2013-03-08 11:09:00,30.3,30.3,29.94,NNE,23,6.0,13.0,100,0.00,,,-99.99,Weather View 32 v60,2013-03-08 16:09:00,
2013-03-08 11:14:00,30.3,30.3,29.95,NNE,23,5.0,13.0,100,0.00,,,-99.99,Weather View 32 v60,2013-03-08 16:14:00,
2013-03-08 11:24:00,30.5,30.5,29.95,NNE,23,4.0,12.0,100,0.00,,,-99.99,Weather View 32 v60,2013-03-08 16:24:00,
2013-03-08 11:34:00,30.5,30.5,29.95,ENE,68,6.0,12.0,100,0.00,,,-99.99,Weather View 32 v60,2013-03-08 16:34:00,
2013-03-08 11:39:00,30.6,30.6,29.95,NNE,23,5.0,12.0,100,0.00,,,-99.99,Weather View 32 v60,2013-03-08 16:39:00,
2013-03-08 11:45:00,30.7,30.7,29.95,ENE,68,3.0,12.0,100,0.00,,,-99.99,Weather View 32 v60,2013-03-08 16:45:00,
2013-03-08 11:49:00,30.8,30.8,29.95,ENE,68,4.0,11.0,100,0.00,,,-99.99,Weather View 32 v60,2013-03-08 16:49:00,
2013-03-08 11:59:00,30.9,30.9,29.96,NNE,23,8.0,16.0,100,0.00,,,-99.99,Weather View 32 v60,2013-03-08 16:59:00,
2013-03-08 12:09:00,30.9,30.9,29.97,NE,45,3.0,17.0,100,0.00,,,-99.99,Weather View 32 v60,2013-03-08 17:09:00,
2013-03-08 12:16:00,31.0,31.0,29.97,NNE,23,6.0,17.0,100,0.00,,,-99.99,Weather View 32 v60,2013-03-08 17:16:00,
2013-03-08 12:24:00,31.2,31.2,29.96,NE,45,2.0,17.0,100,0.00,,,-99.99,Weather View 32 v60,2013-03-08 17:24:00,
2013-03-08 12:30:00,31.3,31.3,29.96,NNE,23,5.0,17.0,100,0.00,,,-99.99,Weather View 32 v60,2013-03-08 17:30:00,
2013-03-08 12:40:00,31.4,31.4,29.96,NNE,23,6.0,17.0,100,0.00,,,-99.99,Weather View 32 v60,2013-03-08 17:40:00,
2013-03-08 12:49:00,31.6,31.6,29.96,NE,45,4.0,17.0,100,0.00,,,-99.99,Weather View 32 v60,2013-03-08 17:49:00,
2013-03-08 12:54:00,31.8,31.8,29.96,NE,45,7.0,17.0,100,0.00,,,-99.99,Weather View 32 v60,2013-03-08 17:54:00,
2013-03-08 13:00:00,31.9,31.9,29.96,NNE,23,6.0,17.0,100,0.00,,,-99.99,Weather View 32 v60,2013-03-08 18:00:00,
2013-03-08 13:09:00,32.2,32.2,29.96,NE,45,3.0,11.0,100,0.00,,,-99.99,Weather View 32 v60,2013-03-08 18:09:00,
2013-03-08 13:14:00,32.4,32.4,29.96,NE,45,4.0,11.0,100,0.00,,,-99.99,Weather View 32 v60,2013-03-08 18:14:00,
2013-03-08 13:24:00,32.8,32.8,29.96,NNE,23,4.0,10.0,100,0.00,,,-99.99,Weather View 32 v60,2013-03-08 18:24:00,
2013-03-08 13:30:00,33.0,33.0,29.95,NNE,23,10.0,11.0,100,0.00,,,-99.99,Weather View 32 v60,2013-03-08 18:30:00,
2013-03-08 13:39:00,33.4,33.4,29.95,NE,45,3.0,11.0,100,0.00,,,-99.99,Weather View 32 v60,2013-03-08 18:39:00,
2013-03-08 13:44:00,33.6,33.6,29.95,NNE,23,3.0,11.0,100,0.00,,,-99.99,Weather View 32 v60,2013-03-08 18:44:00,
2013-03-08 13:54:00,33.9,33.6,29.95,NNE,23,4.0,11.0,99,0.00,,,-99.99,Weather View 32 v60,2013-03-08 18:54:00,
2013-03-08 14:00:00,34.2,33.9,29.95,NNE,23,3.0,11.0,99,0.00,,,-99.99,Weather View 32 v60,2013-03-08 19:00:00,
2013-03-08 14:09:00,34.8,34.0,29.94,NNE,23,6.0,11.0,97,0.00,,,-99.99,Weather View 32 v60,2013-03-08 19:09:00,
2013-03-08 14:15:00,35.1,34.3,29.95,NNE,23,4.0,11.0,97,0.00,,,-99.99,Weather View 32 v60,2013-03-08 19:15:00,
2013-03-08 14:24:00,35.7,34.1,29.95,East,90,2.0,12.0,94,0.00,,,-99.99,Weather View 32 v60,2013-03-08 19:24:00,
2013-03-08 14:30:00,36.0,34.2,29.95,East,90,5.0,12.0,93,0.00,,,-99.99,Weather View 32 v60,2013-03-08 19:30:00,
2013-03-08 14:39:00,36.3,33.9,29.96,NNE,23,3.0,12.0,91,0.00,,,-99.99,Weather View 32 v60,2013-03-08 19:39:00,
2013-03-08 14:45:00,36.4,33.7,29.96,East,90,6.0,12.0,90,0.00,,,-99.99,Weather View 32 v60,2013-03-08 19:45:00,
2013-03-08 14:54:00,36.7,33.5,29.96,ENE,68,4.0,12.0,88,0.00,,,-99.99,Weather View 32 v60,2013-03-08 19:54:00,
2013-03-08 14:59:00,36.8,33.3,29.96,NNE,23,4.0,12.0,87,0.00,,,-99.99,Weather View 32 v60,2013-03-08 19:59:00,
2013-03-08 15:09:00,36.9,33.1,29.96,NNE,23,3.0,12.0,86,0.00,,,-99.99,Weather View 32 v60,2013-03-08 20:09:00,
2013-03-08 15:14:00,37.0,32.9,29.97,NNE,23,3.0,12.0,85,0.00,,,-99.99,Weather View 32 v60,2013-03-08 20:14:00,
2013-03-08 15:24:00,37.1,32.7,29.97,NNE,23,3.0,12.0,84,0.00,,,-99.99,Weather View 32 v60,2013-03-08 20:24:00,
2013-03-08 15:30:00,37.0,32.6,29.97,NNE,23,2.0,12.0,84,0.00,,,-99.99,Weather View 32 v60,2013-03-08 20:30:00,
2013-03-08 15:40:00,37.1,32.4,29.98,NNE,23,3.0,12.0,83,0.00,,,-99.99,Weather View 32 v60,2013-03-08 20:40:00,
2013-03-08 15:49:00,37.3,32.6,29.98,NNE,23,3.0,12.0,83,0.00,,,-99.99,Weather View 32 v60,2013-03-08 20:49:00,
2013-03-08 15:54:00,37.4,32.7,29.98,NNE,23,3.0,12.0,83,0.00,,,-99.99,Weather View 32 v60,2013-03-08 20:54:00,
2013-03-08 16:04:00,37.6,32.6,29.99,NE,45,3.0,12.0,82,0.00,,,-99.99,Weather View 32 v60,2013-03-08 21:04:00,
2013-03-08 16:09:00,37.7,32.4,29.99,NE,45,4.0,11.0,81,0.00,,,-99.99,Weather View 32 v60,2013-03-08 21:09:00,
2013-03-08 16:14:00,37.7,32.4,29.99,NNE,23,2.0,11.0,81,0.00,,,-99.99,Weather View 32 v60,2013-03-08 21:14:00,
2013-03-08 16:24:00,37.7,32.1,30.00,NE,45,2.0,11.0,80,0.00,,,-99.99,Weather View 32 v60,2013-03-08 21:24:00,
2013-03-08 16:30:00,37.7,32.1,30.00,NE,45,2.0,11.0,80,0.00,,,-99.99,Weather View 32 v60,2013-03-08 21:30:00,
2013-03-08 16:39:00,37.7,32.1,30.01,NNE,23,1.0,11.0,80,0.00,,,-99.99,Weather View 32 v60,2013-03-08 21:39:00,
2013-03-08 16:45:00,37.6,32.0,30.01,NNE,23,2.0,11.0,80,0.00,,,-99.99,Weather View 32 v60,2013-03-08 21:45:00,
2013-03-08 16:54:00,37.5,31.9,30.01,NE,45,2.0,11.0,80,0.00,,,-99.99,Weather View 32 v60,2013-03-08 21:54:00,
2013-03-08 16:59:00,37.4,31.8,30.01,NNE,23,1.0,11.0,80,0.00,,,-99.99,Weather View 32 v60,2013-03-08 21:59:00,
2013-03-08 17:10:00,37.3,31.7,30.01,NE,45,3.0,6.0,80,0.00,,,-99.99,Weather View 32 v60,2013-03-08 22:10:00,
2013-03-08 17:19:00,37.2,31.6,30.01,ENE,68,1.0,9.0,80,0.00,,,-99.99,Weather View 32 v60,2013-03-08 22:19:00,
2013-03-08 17:24:00,37.0,31.4,30.01,NNE,23,3.0,9.0,80,0.00,,,-99.99,Weather View 32 v60,2013-03-08 22:24:00,
2013-03-08 17:30:00,37.0,31.4,30.02,NNE,23,2.0,9.0,80,0.00,,,-99.99,Weather View 32 v60,2013-03-08 22:30:00,
2013-03-08 17:40:00,36.8,31.2,30.02,East,90,1.0,9.0,80,0.00,,,-99.99,Weather View 32 v60,2013-03-08 22:40:00,
2013-03-08 17:49:00,36.5,31.2,30.02,East,90,1.0,9.0,81,0.00,,,-99.99,Weather View 32 v60,2013-03-08 22:49:00,
2013-03-08 17:54:00,36.3,31.3,30.03,East,90,1.0,9.0,82,0.00,,,-99.99,Weather View 32 v60,2013-03-08 22:54:00,
2013-03-08 18:00:00,36.1,31.4,30.03,NE,45,2.0,9.0,83,0.00,,,-99.99,Weather View 32 v60,2013-03-08 23:00:00,
2013-03-08 18:10:00,36.0,31.0,30.03,NNE,23,2.0,9.0,82,0.00,,,-99.99,Weather View 32 v60,2013-03-08 23:10:00,
2013-03-08 18:15:00,36.0,31.0,30.03,NE,45,2.0,6.0,82,0.00,,,-99.99,Weather View 32 v60,2013-03-08 23:15:00,
2013-03-08 18:20:00,36.1,30.8,30.03,NNE,23,3.0,7.0,81,0.00,,,-99.99,Weather View 32 v60,2013-03-08 23:20:00,
2013-03-08 18:29:00,36.3,30.7,30.04,NE,45,6.0,7.0,80,0.00,,,-99.99,Weather View 32 v60,2013-03-08 23:29:00,
2013-03-08 18:34:00,36.5,30.6,30.04,ENE,68,3.0,8.0,79,0.00,,,-99.99,Weather View 32 v60,2013-03-08 23:34:00,
2013-03-08 18:40:00,36.7,30.5,30.04,ENE,68,3.0,8.0,78,0.00,,,-99.99,Weather View 32 v60,2013-03-08 23:40:00,
2013-03-08 18:49:00,36.9,30.0,30.04,SE,135,1.0,8.0,76,0.00,,,-99.99,Weather View 32 v60,2013-03-08 23:49:00,
2013-03-08 18:54:00,37.1,30.2,30.04,NNE,23,3.0,8.0,76,0.00,,,-99.99,Weather View 32 v60,2013-03-08 23:54:00,
2013-03-08 19:00:00,37.2,30.0,30.04,NNE,23,1.0,10.0,75,0.00,,,-99.99,Weather View 32 v60,2013-03-09 00:00:00,
2013-03-08 19:09:00,37.3,29.8,30.04,NNE,23,3.0,10.0,74,0.00,,,-99.99,Weather View 32 v60,2013-03-09 00:09:00,
2013-03-08 19:14:00,37.3,29.8,30.04,NNE,23,1.0,10.0,74,0.00,,,-99.99,Weather View 32 v60,2013-03-09 00:14:00,
2013-03-08 19:20:00,37.3,29.4,30.05,ENE,68,2.0,10.0,73,0.00,,,-99.99,Weather View 32 v60,2013-03-09 00:20:00,
2013-03-08 19:30:00,37.4,29.2,30.05,NNE,23,2.0,10.0,72,0.00,,,-99.99,Weather View 32 v60,2013-03-09 00:30:00,
2013-03-08 19:39:00,37.4,28.8,30.05,NNE,23,3.0,10.0,71,0.00,,,-99.99,Weather View 32 v60,2013-03-09 00:39:00,
2013-03-08 19:44:00,37.4,28.8,30.05,NNE,23,3.0,10.0,71,0.00,,,-99.99,Weather View 32 v60,2013-03-09 00:44:00,
2013-03-08 19:54:00,37.3,28.8,30.06,NNE,23,3.0,10.0,71,0.00,,,-99.99,Weather View 32 v60,2013-03-09 00:54:00,
2013-03-08 20:04:00,37.0,28.5,30.06,NNE,23,2.0,9.0,71,0.00,,,-99.99,Weather View 32 v60,2013-03-09 01:04:00,
2013-03-08 20:09:00,36.8,28.3,30.06,ENE,68,2.0,9.0,71,0.00,,,-99.99,Weather View 32 v60,2013-03-09 01:09:00,
2013-03-08 20:14:00,36.6,28.4,30.07,NE,45,2.0,9.0,72,0.00,,,-99.99,Weather View 32 v60,2013-03-09 01:14:00,
2013-03-08 20:21:00,36.4,28.2,30.07,NE,45,1.0,9.0,72,0.00,,,-99.99,Weather View 32 v60,2013-03-09 01:21:00,
2013-03-08 20:30:00,36.2,28.0,30.07,NNE,23,1.0,9.0,72,0.00,,,-99.99,Weather View 32 v60,2013-03-09 01:30:00,
2013-03-08 20:39:00,36.2,27.7,30.07,North,0,2.0,9.0,71,0.00,,,-99.99,Weather View 32 v60,2013-03-09 01:39:00,
2013-03-08 20:44:00,36.2,27.7,30.07,NE,45,3.0,9.0,71,0.00,,,-99.99,Weather View 32 v60,2013-03-09 01:44:00,
2013-03-08 20:54:00,36.1,27.6,30.08,NE,45,1.0,9.0,71,0.00,,,-99.99,Weather View 32 v60,2013-03-09 01:54:00,
2013-03-08 21:04:00,35.9,27.4,30.08,North,0,2.0,9.0,71,0.00,,,-99.99,Weather View 32 v60,2013-03-09 02:04:00,
2013-03-08 21:09:00,35.8,27.3,30.08,North,0,3.0,9.0,71,0.00,,,-99.99,Weather View 32 v60,2013-03-09 02:09:00,
2013-03-08 21:15:00,35.7,27.2,30.08,North,0,1.0,9.0,71,0.00,,,-99.99,Weather View 32 v60,2013-03-09 02:15:00,
2013-03-08 21:21:00,35.6,27.1,30.08,North,0,2.0,9.0,71,0.00,,,-99.99,Weather View 32 v60,2013-03-09 02:21:00,
2013-03-08 21:29:00,35.4,27.3,30.08,NE,45,2.0,9.0,72,0.00,,,-99.99,Weather View 32 v60,2013-03-09 02:29:00,
2013-03-08 21:39:00,35.0,26.9,30.08,WNW,293,2.0,9.0,72,0.00,,,-99.99,Weather View 32 v60,2013-03-09 02:39:00,
2013-03-08 21:44:00,34.8,26.7,30.09,NNE,23,3.0,7.0,72,0.00,,,-99.99,Weather View 32 v60,2013-03-09 02:44:00,
2013-03-08 21:49:00,34.6,26.5,30.09,North,0,3.0,7.0,72,0.00,,,-99.99,Weather View 32 v60,2013-03-09 02:49:00,
2013-03-08 22:00:00,34.2,26.8,30.09,NE,45,1.0,6.0,74,0.00,,,-99.99,Weather View 32 v60,2013-03-09 03:00:00,
2013-03-08 22:05:00,34.1,26.7,30.09,NE,45,2.0,6.0,74,0.00,,,-99.99,Weather View 32 v60,2013-03-09 03:05:00,
2013-03-08 22:14:00,33.5,26.1,30.09,NNE,23,1.0,6.0,74,0.00,,,-99.99,Weather View 32 v60,2013-03-09 03:14:00,
2013-03-08 22:19:00,33.2,26.1,30.10,ENE,68,3.0,6.0,75,0.00,,,-99.99,Weather View 32 v60,2013-03-09 03:19:00,
2013-03-08 22:24:00,33.0,26.3,30.10,East,90,2.0,7.0,76,0.00,,,-99.99,Weather View 32 v60,2013-03-09 03:24:00,
2013-03-08 22:30:00,32.8,26.1,30.10,NE,45,1.0,7.0,76,0.00,,,-99.99,Weather View 32 v60,2013-03-09 03:30:00,
2013-03-08 22:39:00,32.7,26.0,30.10,NNE,23,2.0,7.0,76,0.00,,,-99.99,Weather View 32 v60,2013-03-09 03:39:00,
2013-03-08 22:44:00,32.6,26.2,30.10,NNE,23,2.0,7.0,77,0.00,,,-99.99,Weather View 32 v60,2013-03-09 03:44:00,
2013-03-08 22:54:00,32.3,26.2,30.09,East,90,2.0,7.0,78,0.00,,,-99.99,Weather View 32 v60,2013-03-09 03:54:00,
2013-03-08 23:04:00,31.9,25.8,30.09,East,90,1.0,7.0,78,0.00,,,-99.99,Weather View 32 v60,2013-03-09 04:04:00,
2013-03-08 23:05:00,29.6,24.5,30.10,NNE,23,2.0,6.0,81,0.00,,,-99.99,Weather View 32 v60,2013-03-09 04:05:00,
2013-03-08 23:09:00,31.7,25.6,30.09,East,90,2.0,7.0,78,0.00,,,-99.99,Weather View 32 v60,2013-03-09 04:09:00,
2013-03-08 23:10:00,29.5,24.7,30.10,NE,45,1.0,6.0,82,0.00,,,-99.99,Weather View 32 v60,2013-03-09 04:10:00,
2013-03-08 23:15:00,31.5,25.7,30.09,NE,45,3.0,7.0,79,0.00,,,-99.99,Weather View 32 v60,2013-03-09 04:15:00,
2013-03-08 23:20:00,31.2,25.4,30.09,ESE,113,2.0,7.0,79,0.00,,,-99.99,Weather View 32 v60,2013-03-09 04:20:00,
2013-03-08 23:25:00,29.0,24.2,30.11,NE,45,1.0,6.0,82,0.00,,,-99.99,Weather View 32 v60,2013-03-09 04:25:00,
2013-03-08 23:30:00,30.7,25.3,30.09,East,90,2.0,5.0,80,0.00,,,-99.99,Weather View 32 v60,2013-03-09 04:30:00,
2013-03-08 23:35:00,28.9,24.1,30.11,NE,45,2.0,4.0,82,0.00,,,-99.99,Weather View 32 v60,2013-03-09 04:35:00,
2013-03-08 23:39:00,30.3,25.2,30.10,ENE,68,1.0,6.0,81,0.00,,,-99.99,Weather View 32 v60,2013-03-09 04:39:00,
2013-03-08 23:40:00,28.8,24.0,30.11,ENE,68,3.0,4.0,82,0.00,,,-99.99,Weather View 32 v60,2013-03-09 04:40:00,
2013-03-08 23:45:00,28.8,24.0,30.11,East,90,2.0,4.0,82,0.00,,,-99.99,Weather View 32 v60,2013-03-09 04:45:00,
2013-03-08 23:50:00,30.0,24.9,30.10,NNE,23,3.0,6.0,81,0.00,,,-99.99,Weather View 32 v60,2013-03-09 04:50:00,
2013-03-08 23:55:00,28.5,23.7,30.11,ENE,68,1.0,6.0,82,0.00,,,-99.99,Weather View 32 v60,2013-03-09 04:55:00,